�������l�o���
Date,Time,MP-1(��Sv/h),MP-2(��Sv/h),MP-3(��Sv/h),MP-4(��Sv/h),MP-5(��Sv/h),MP-6(��Sv/h),MP-7(��Sv/h),MP-8(��Sv/h),����,����(m/s),���J
2024/06/08,00:00,0.499,0.768,0.484,0.945,0.692,0.315,0.550,0.508,��,3.5,��
2024/06/08,00:10,0.499,0.769,0.484,0.946,0.693,0.316,0.551,0.506,��,4.2,��
2024/06/08,00:20,0.499,0.769,0.483,0.945,0.693,0.315,0.550,0.506,��,4.3,��
2024/06/08,00:30,0.499,0.768,0.483,0.944,0.691,0.315,0.549,0.507,��쐼,4.7,��
2024/06/08,00:40,0.498,0.768,0.483,0.945,0.694,0.315,0.552,0.508,��쐼,4.6,��
2024/06/08,00:50,0.497,0.768,0.483,0.944,0.693,0.315,0.549,0.507,��쐼,4.8,��
2024/06/08,01:00,0.499,0.768,0.483,0.944,0.693,0.316,0.549,0.506,��쐼,3.8,��
2024/06/08,01:10,0.499,0.767,0.482,0.945,0.692,0.314,0.550,0.507,��쐼,3.6,��
2024/06/08,01:20,0.498,0.768,0.483,0.945,0.693,0.315,0.551,0.507,��쐼,3.5,��
2024/06/08,01:30,0.497,0.767,0.482,0.945,0.693,0.314,0.551,0.507,��쐼,3.5,��
2024/06/08,01:40,0.498,0.767,0.483,0.944,0.693,0.314,0.551,0.506,��,3.5,��
2024/06/08,01:50,0.499,0.766,0.482,0.944,0.692,0.314,0.551,0.506,��,3.3,��
2024/06/08,02:00,0.498,0.768,0.483,0.944,0.692,0.317,0.550,0.507,��쓌,2.9,��
2024/06/08,02:10,0.498,0.767,0.482,0.946,0.694,0.315,0.550,0.506,��쓌,2.6,��
2024/06/08,02:20,0.499,0.768,0.482,0.945,0.692,0.314,0.550,0.507,��,2.5,��
2024/06/08,02:30,0.498,0.769,0.481,0.944,0.695,0.314,0.550,0.507,��,2.6,��
2024/06/08,02:40,0.497,0.768,0.483,0.944,0.692,0.315,0.550,0.507,��,2.3,��
2024/06/08,02:50,0.499,0.767,0.482,0.943,0.693,0.314,0.550,0.507,��,2.3,��
2024/06/08,03:00,0.498,0.768,0.484,0.942,0.692,0.314,0.550,0.505,��,2.3,��
2024/06/08,03:10,0.499,0.766,0.481,0.942,0.694,0.315,0.549,0.506,��,2.2,��
2024/06/08,03:20,0.499,0.769,0.483,0.942,0.694,0.314,0.550,0.507,��,2.3,��
2024/06/08,03:30,0.498,0.768,0.482,0.944,0.693,0.314,0.550,0.505,��쐼,2.8,��
2024/06/08,03:40,0.499,0.766,0.483,0.943,0.694,0.314,0.551,0.507,��쐼,3.1,��
2024/06/08,03:50,0.499,0.767,0.482,0.944,0.692,0.315,0.551,0.507,��쐼,3.5,��
2024/06/08,04:00,0.498,0.766,0.483,0.944,0.694,0.314,0.549,0.506,��쐼,4.0,��
2024/06/08,04:10,0.497,0.766,0.482,0.943,0.692,0.314,0.550,0.507,��,4.5,��
2024/06/08,04:20,0.496,0.767,0.483,0.946,0.693,0.315,0.549,0.507,��,3.7,��
2024/06/08,04:30,0.498,0.767,0.482,0.944,0.694,0.315,0.550,0.507,��,2.0,��
2024/06/08,04:40,0.497,0.768,0.482,0.945,0.692,0.315,0.550,0.507,�쐼,3.0,��
2024/06/08,04:50,0.496,0.766,0.483,0.945,0.692,0.314,0.550,0.506,�쐼,2.9,��
2024/06/08,05:00,0.499,0.768,0.481,0.944,0.691,0.315,0.550,0.507,��쐼,2.9,��
2024/06/08,05:10,0.498,0.766,0.483,0.943,0.692,0.315,0.550,0.506,��,3.0,��
2024/06/08,05:20,0.497,0.767,0.481,0.943,0.694,0.314,0.549,0.508,��,2.3,��
2024/06/08,05:30,0.495,0.767,0.483,0.943,0.692,0.315,0.549,0.507,��,2.0,��
2024/06/08,05:40,0.498,0.767,0.483,0.944,0.691,0.313,0.550,0.506,�쐼,2.0,��
2024/06/08,05:50,0.500,0.767,0.484,0.946,0.692,0.314,0.550,0.506,��쐼,2.0,��
2024/06/08,06:00,0.498,0.767,0.482,0.943,0.693,0.314,0.550,0.506,��,2.2,��
2024/06/08,06:10,0.500,0.767,0.481,0.945,0.692,0.313,0.549,0.509,��쐼,2.0,��
2024/06/08,06:20,0.500,0.766,0.482,0.945,0.691,0.315,0.551,0.507,��,2.2,��
2024/06/08,06:30,0.498,0.765,0.481,0.943,0.691,0.315,0.549,0.508,��쐼,1.7,��
2024/06/08,06:40,0.499,0.766,0.482,0.945,0.692,0.315,0.550,0.508,��쓌,2.0,��
2024/06/08,06:50,0.500,0.765,0.482,0.945,0.691,0.314,0.551,0.507,��,1.7,��
2024/06/08,07:00,0.498,0.765,0.484,0.943,0.692,0.313,0.551,0.508,��쓌,2.6,��
2024/06/08,07:10,0.497,0.766,0.483,0.944,0.692,0.313,0.551,0.508,��쓌,2.8,��
2024/06/08,07:20,0.496,0.767,0.482,0.946,0.691,0.311,0.548,0.508,��쓌,2.5,��
2024/06/08,07:30,0.497,0.766,0.482,0.943,0.690,0.313,0.549,0.509,�쓌,1.5,��
2024/06/08,07:40,0.498,0.768,0.483,0.945,0.690,0.313,0.548,0.508,�쓌,2.3,��
2024/06/08,07:50,0.498,0.768,0.484,0.946,0.692,0.313,0.548,0.505,�쓌,2.2,��
2024/06/08,08:00,0.497,0.768,0.483,0.945,0.692,0.313,0.546,0.507,�쓌,2.9,��
2024/06/08,08:10,0.499,0.767,0.484,0.945,0.695,0.315,0.547,0.505,���쓌,2.3,��
2024/06/08,08:20,0.498,0.769,0.482,0.945,0.694,0.314,0.548,0.506,���쓌,2.3,��
2024/06/08,08:30,0.497,0.768,0.483,0.944,0.692,0.312,0.550,0.505,�쓌,2.6,��
2024/06/08,08:40,0.499,0.767,0.483,0.946,0.692,0.313,0.547,0.504,�쓌,2.0,��
2024/06/08,08:50,0.500,0.768,0.483,0.945,0.692,0.315,0.548,0.506,�쓌,2.3,��
2024/06/08,09:00,0.499,0.768,0.483,0.945,0.694,0.314,0.548,0.506,�쓌,2.0,��
2024/06/08,09:10,0.501,0.768,0.484,0.947,0.695,0.313,0.548,0.507,�쓌,2.3,��
2024/06/08,09:20,0.500,0.770,0.482,0.946,0.693,0.316,0.549,0.506,���쓌,2.6,��
2024/06/08,09:30,0.500,0.770,0.482,0.947,0.693,0.314,0.549,0.505,�쓌,3.2,��
2024/06/08,09:40,0.500,0.771,0.482,0.946,0.694,0.315,0.549,0.507,�쓌,3.0,��
2024/06/08,09:50,0.499,0.769,0.485,0.947,0.692,0.313,0.548,0.506,��쓌,2.5,��
2024/06/08,10:00,0.500,0.769,0.484,0.944,0.692,0.313,0.547,0.506,�쓌,4.1,��
2024/06/08,10:10,0.502,0.770,0.482,0.946,0.692,0.315,0.549,0.506,�쓌,3.3,��
2024/06/08,10:20,0.499,0.770,0.483,0.946,0.691,0.314,0.547,0.507,�쓌,3.9,��
2024/06/08,10:30,0.500,0.770,0.484,0.947,0.694,0.313,0.548,0.505,��쓌,4.7,��
2024/06/08,10:40,0.500,0.769,0.482,0.947,0.694,0.314,0.547,0.508,��쓌,4.9,��
2024/06/08,10:50,0.501,0.770,0.484,0.946,0.694,0.315,0.549,0.507,��쓌,5.7,��
2024/06/08,11:00,0.500,0.770,0.484,0.945,0.694,0.315,0.547,0.506,��쓌,6.2,��
2024/06/08,11:10,0.501,0.771,0.483,0.944,0.692,0.315,0.549,0.507,��쓌,7.9,��
2024/06/08,11:20,0.500,0.771,0.483,0.943,0.695,0.314,0.548,0.506,��쓌,6.9,��
2024/06/08,11:30,0.501,0.770,0.484,0.942,0.696,0.316,0.548,0.506,��쓌,4.4,��
2024/06/08,11:40,0.498,0.770,0.483,0.943,0.693,0.315,0.548,0.507,��쓌,7.2,��
2024/06/08,11:50,0.502,0.770,0.485,0.947,0.694,0.314,0.549,0.507,��쓌,6.1,��
2024/06/08,12:00,0.500,0.769,0.484,0.944,0.695,0.313,0.549,0.507,��쓌,6.1,��
2024/06/08,12:10,0.500,0.771,0.484,0.947,0.695,0.315,0.549,0.506,��쓌,7.1,��
2024/06/08,12:20,0.500,0.771,0.485,0.944,0.696,0.315,0.548,0.506,��쓌,7.5,��
2024/06/08,12:30,0.500,0.770,0.484,0.947,0.698,0.315,0.550,0.507,��쓌,7.4,��
2024/06/08,12:40,0.501,0.771,0.484,0.945,0.696,0.314,0.548,0.507,��쓌,8.3,��
2024/06/08,12:50,0.502,0.771,0.484,0.947,0.694,0.314,0.550,0.507,��쓌,8.9,��
2024/06/08,13:00,0.499,0.770,0.484,0.947,0.696,0.314,0.549,0.506,��쓌,8.8,��
2024/06/08,13:10,0.502,0.772,0.484,0.946,0.697,0.315,0.548,0.507,��쓌,6.4,��
2024/06/08,13:20,0.501,0.770,0.485,0.946,0.696,0.314,0.549,0.505,��,5.5,��
2024/06/08,13:30,0.501,0.773,0.485,0.947,0.699,0.315,0.549,0.507,��쓌,5.9,��
2024/06/08,13:40,0.503,0.771,0.485,0.947,0.697,0.316,0.550,0.507,��쓌,8.3,��
2024/06/08,13:50,0.502,0.772,0.485,0.947,0.698,0.315,0.550,0.507,��쓌,4.9,��
2024/06/08,14:00,0.502,0.771,0.484,0.948,0.699,0.316,0.549,0.507,��,0.9,��
2024/06/08,14:10,0.500,0.770,0.486,0.946,0.697,0.315,0.547,0.506,���쓌,1.2,��
2024/06/08,14:20,0.502,0.770,0.484,0.948,0.699,0.315,0.550,0.507,��쓌,5.5,��
2024/06/08,14:30,0.502,0.770,0.484,0.945,0.697,0.315,0.549,0.508,��쓌,3.2,��
2024/06/08,14:40,0.502,0.772,0.485,0.948,0.700,0.315,0.547,0.507,��쓌,4.6,��
2024/06/08,14:50,0.502,0.770,0.486,0.949,0.698,0.315,0.549,0.507,��쓌,4.9,��
2024/06/08,15:00,0.502,0.773,0.485,0.947,0.697,0.314,0.550,0.506,�쓌,5.3,��
2024/06/08,15:10,0.502,0.771,0.485,0.947,0.697,0.316,0.549,0.508,��쓌,7.4,��
2024/06/08,15:20,0.501,0.769,0.485,0.949,0.698,0.314,0.550,0.505,��쓌,7.0,��
2024/06/08,15:30,0.501,0.771,0.486,0.950,0.698,0.316,0.548,0.506,��쓌,5.9,��
2024/06/08,15:40,0.501,0.772,0.485,0.951,0.698,0.316,0.548,0.506,��쓌,7.2,��
2024/06/08,15:50,0.502,0.771,0.484,0.948,0.698,0.315,0.549,0.506,��쓌,4.4,��
2024/06/08,16:00,0.502,0.772,0.484,0.950,0.698,0.314,0.547,0.506,��,7.7,��
2024/06/08,16:10,0.502,0.771,0.485,0.948,0.699,0.315,0.549,0.507,��,6.7,��
2024/06/08,16:20,0.502,0.771,0.484,0.948,0.697,0.317,0.548,0.507,��,3.9,��
2024/06/08,16:30,0.503,0.771,0.484,0.946,0.697,0.315,0.548,0.507,��,8.8,��
2024/06/08,16:40,0.503,0.771,0.484,0.948,0.697,0.315,0.548,0.506,��,7.9,��
2024/06/08,16:50,0.501,0.771,0.486,0.948,0.698,0.314,0.550,0.506,��,7.1,��
2024/06/08,17:00,0.503,0.771,0.484,0.949,0.699,0.314,0.548,0.507,��쓌,7.9,��
2024/06/08,17:10,0.501,0.773,0.484,0.950,0.699,0.314,0.548,0.506,��쓌,8.6,��
2024/06/08,17:20,0.503,0.772,0.485,0.950,0.698,0.314,0.548,0.505,��쓌,9.1,��
2024/06/08,17:30,0.502,0.775,0.484,0.949,0.698,0.314,0.548,0.506,��쓌,8.8,��
2024/06/08,17:40,0.502,0.773,0.485,0.947,0.696,0.315,0.546,0.506,��쓌,8.4,��
2024/06/08,17:50,0.501,0.773,0.485,0.950,0.698,0.314,0.547,0.505,��쓌,9.3,��
2024/06/08,18:00,0.503,0.775,0.484,0.950,0.697,0.315,0.548,0.508,��쓌,8.7,��
2024/06/08,18:10,0.501,0.770,0.484,0.951,0.698,0.314,0.548,0.508,��쓌,9.3,��
2024/06/08,18:20,0.498,0.771,0.485,0.951,0.698,0.314,0.548,0.509,��쓌,9.1,��
2024/06/08,18:30,0.501,0.772,0.484,0.949,0.699,0.314,0.549,0.510,��,10.2,��
2024/06/08,18:40,0.501,0.771,0.482,0.950,0.698,0.315,0.549,0.510,��쓌,9.4,��
2024/06/08,18:50,0.504,0.772,0.485,0.952,0.698,0.314,0.550,0.510,��,8.4,��
2024/06/08,19:00,0.501,0.773,0.485,0.952,0.697,0.315,0.550,0.508,��쓌,8.2,��
2024/06/08,19:10,0.501,0.772,0.484,0.952,0.699,0.315,0.549,0.508,��,7.9,��
2024/06/08,19:20,0.500,0.773,0.485,0.953,0.697,0.315,0.550,0.510,��,7.7,��
2024/06/08,19:30,0.500,0.774,0.485,0.954,0.699,0.316,0.550,0.509,��,8.0,��
2024/06/08,19:40,0.501,0.773,0.485,0.953,0.699,0.315,0.550,0.509,��,7.1,��
2024/06/08,19:50,0.501,0.774,0.485,0.952,0.700,0.315,0.551,0.509,��,6.1,��
2024/06/08,20:00,0.502,0.773,0.485,0.951,0.701,0.315,0.550,0.508,��,6.7,��
2024/06/08,20:10,0.502,0.776,0.487,0.952,0.700,0.316,0.551,0.511,��,7.6,��
2024/06/08,20:20,0.501,0.774,0.486,0.952,0.702,0.316,0.550,0.509,��,6.5,��
2024/06/08,20:30,0.504,0.773,0.487,0.952,0.699,0.317,0.550,0.508,��,6.5,��
2024/06/08,20:40,0.502,0.775,0.486,0.952,0.701,0.316,0.549,0.509,��,6.6,��
2024/06/08,20:50,0.502,0.776,0.487,0.953,0.700,0.316,0.549,0.509,��,6.2,��
2024/06/08,21:00,0.502,0.777,0.487,0.953,0.700,0.317,0.550,0.509,��,6.9,��
2024/06/08,21:10,0.503,0.773,0.488,0.952,0.701,0.315,0.550,0.510,��,6.9,��
2024/06/08,21:20,0.502,0.774,0.487,0.951,0.699,0.315,0.551,0.508,��,7.0,��
2024/06/08,21:30,0.503,0.775,0.486,0.952,0.700,0.316,0.550,0.509,��,7.2,��
2024/06/08,21:40,0.502,0.774,0.487,0.952,0.700,0.316,0.550,0.507,��,6.8,��
2024/06/08,21:50,0.503,0.774,0.486,0.953,0.701,0.316,0.551,0.507,��,6.4,��
2024/06/08,22:00,0.502,0.774,0.487,0.951,0.701,0.316,0.550,0.508,��,7.1,��
2024/06/08,22:10,0.503,0.773,0.486,0.952,0.701,0.316,0.550,0.509,��,6.6,��
2024/06/08,22:20,0.503,0.775,0.486,0.953,0.698,0.316,0.550,0.509,��,5.9,��
2024/06/08,22:30,0.503,0.774,0.486,0.953,0.698,0.315,0.550,0.507,��,4.2,��
2024/06/08,22:40,0.502,0.775,0.488,0.954,0.699,0.316,0.549,0.509,��,4.4,��
2024/06/08,22:50,0.504,0.773,0.486,0.952,0.702,0.316,0.550,0.508,��,5.2,��
2024/06/08,23:00,0.501,0.774,0.487,0.951,0.700,0.316,0.549,0.509,��,5.5,��
2024/06/08,23:10,0.504,0.773,0.486,0.951,0.700,0.317,0.550,0.511,��쓌,4.7,��
2024/06/08,23:20,0.504,0.772,0.487,0.950,0.701,0.316,0.550,0.508,��,5.5,��
2024/06/08,23:30,0.502,0.775,0.487,0.953,0.702,0.317,0.551,0.509,��,4.9,��
2024/06/08,23:40,0.504,0.772,0.488,0.952,0.701,0.316,0.550,0.507,��,5.6,��
2024/06/08,23:50,0.504,0.775,0.485,0.952,0.698,0.317,0.552,0.509,��,6.6,��
